FW9676 Weather Reports


Display with metric or nautical units.
time (UTC)temp
F
wind
direction
speed
MPH
gust
MPH
rain 1hr
in
rain 24hr
in
rain mn
in
humidity
%
barometer
mb
20260901205018 75 277 7.0 15.0 0.00 0.00 0.00 73 1015.0
20260901204541 75 255 5.0 15.0 0.00 0.00 0.00 72 1015.0
20260901204017 75 257 5.0 17.0 0.00 0.00 0.00 73 1015.0
20260901203520 75 273 6.0 17.0 0.00 0.00 0.00 73 1015.2
20260901203046 75 236 8.0 15.0 0.00 0.00 0.00 74 1015.1
20260901202516 75 243 6.0 14.0 0.00 0.00 0.00 73 1015.1
20260901202016 75 246 5.0 14.0 0.00 0.00 0.00 73 1015.3
20260901201538 75 267 7.0 14.0 0.00 0.00 0.00 72 1015.4
20260901201019 75 249 7.0 14.0 0.00 0.00 0.00 73 1015.4
20260901200518 75 258 7.0 14.0 0.00 0.00 0.00 72 1015.4
20260901200047 75 247 6.0 14.0 0.00 0.00 0.00 72 1015.4
20260901195520 75 262 6.0 16.0 0.00 0.00 0.00 73 1015.5
20260901195018 74 238 8.0 16.0 0.00 0.00 0.00 72 1015.5
20260901194541 75 221 6.0 15.0 0.00 0.00 0.00 73 1015.5
20260901194019 75 191 6.0 13.0 0.00 0.00 0.00 72 1015.6
20260901193517 75 232 6.0 12.0 0.00 0.00 0.00 72 1015.5
20260901193039 75 224 6.0 12.0 0.00 0.00 0.00 73 1015.6
20260901192516 74 220 6.0 12.0 0.00 0.00 0.00 73 1015.6
20260901192016 75 223 7.0 12.0 0.00 0.00 0.00 72 1015.6
20260901191537 75 241 5.0 13.0 0.00 0.00 0.00 73 1015.6
20260901191016 75 234 4.0 13.0 0.00 0.00 0.00 73 1015.7
20260901190518 75 260 5.0 10.0 0.00 0.00 0.00 74 1015.7
20260901190050 75 268 5.0 12.0 0.00 0.00 0.00 73 1015.7
20260901185520 74 261 5.0 12.0 0.00 0.00 0.00 72 1015.6
20260901185023 74 257 5.0 11.0 0.00 0.00 0.00 73 1015.7
20260901184542 74 264 4.0 10.0 0.00 0.00 0.00 73 1015.8
20260901184018 74 240 5.0 12.0 0.00 0.00 0.00 73 1015.7
20260901183517 74 253 5.0 13.0 0.00 0.00 0.00 73 1015.8
20260901183035 74 258 4.0 13.0 0.00 0.00 0.00 73 1015.8
20260901182520 73 219 5.0 13.0 0.00 0.00 0.00 74 1015.8
20260901182019 73 234 5.0 10.0 0.00 0.00 0.00 74 1015.9
20260901181537 73 221 4.0 11.0 0.00 0.00 0.00 74 1015.9
20260901181016 73 220 4.0 11.0 0.00 0.00 0.00 74 1015.9
20260901180522 73 196 4.0 11.0 0.00 0.00 0.00 74 1015.9
20260901180035 73 262 5.0 11.0 0.00 0.00 0.00 75 1015.9
20260901175522 73 283 4.0 11.0 0.00 0.00 0.00 75 1016.0
20260901175019 73 242 4.0 11.0 0.00 0.00 0.00 75 1016.0
20260901174537 73 249 4.0 11.0 0.00 0.00 0.00 76 1016.0
20260901174019 73 261 5.0 10.0 0.00 0.00 0.00 75 1016.0
20260901173521 73 255 4.0 9.0 0.00 0.00 0.00 75 1016.0
20260901173039 73 240 2.0 11.0 0.00 0.00 0.00 76 1015.9
20260901172520 73 296 4.0 11.0 0.00 0.00 0.00 76 1015.8
20260901172020 73 229 3.0 9.0 0.00 0.00 0.00 77 1015.7
20260901171534 73 240 2.0 9.0 0.00 0.00 0.00 77 1015.7
20260901171016 72 223 3.0 9.0 0.00 0.00 0.00 77 1015.6
20260901170518 72 216 4.0 8.0 0.00 0.00 0.00 77 1015.7
20260901170038 72 240 2.0 6.0 0.00 0.00 0.00 78 1015.7
20260901165518 72 284 2.0 6.0 0.00 0.00 0.00 79 1015.6
20260901165018 72 270 2.0 6.0 0.00 0.00 0.00 79 1015.6
20260901164543 71 229 1.0 6.0 0.00 0.00 0.00 80 1015.6
20260901164019 71 252 1.0 5.0 0.00 0.00 0.00 81 1015.6
20260901163520 70 182 1.0 5.0 0.00 0.00 0.00 82 1015.6
20260901163038 70 189 0.0 4.0 0.00 0.00 0.00 83 1015.6
20260901162518 70 0 2.0 4.0 0.00 0.00 0.00 83 1015.6
20260901162022 69 223 0.0 4.0 0.00 0.00 0.00 83 1015.7
20260901161534 69 283 1.0 4.0 0.00 0.00 0.00 84 1015.7
20260901161016 69 243 1.0 6.0 0.00 0.00 0.00 84 1015.7
20260901160519 69 0 1.0 6.0 0.00 0.00 0.00 84 1015.7
20260901160034 69 200 1.0 6.0 0.00 0.00 0.00 84 1015.7
20260901155518 69 0 1.0 4.0 0.00 0.00 0.00 85 1015.6
20260901155019 68 221 1.0 5.0 0.00 0.00 0.00 85 1015.6
20260901154536 68 174 2.0 5.0 0.00 0.00 0.00 86 1015.6
20260901154020 68 155 1.0 4.0 0.00 0.00 0.00 86 1015.5
20260901153520 68 211 0.0 4.0 0.00 0.00 0.00 86 1015.5
20260901153038 68 139 1.0 4.0 0.00 0.00 0.00 87 1015.5
20260901152518 67 189 0.0 5.0 0.00 0.00 0.00 87 1015.5
20260901152018 67 244 1.0 5.0 0.00 0.00 0.00 87 1015.4
20260901151537 67 0 0.0 4.0 0.00 0.00 0.00 88 1015.5
20260901151018 67 0 0.0 4.0 0.00 0.00 0.00 88 1015.5
20260901150516 67 226 0.0 5.0 0.00 0.00 0.00 88 1015.4
20260901150037 66 226 0.0 5.0 0.00 0.00 0.00 89 1015.3
20260901145519 66 249 1.0 5.0 0.00 0.00 0.00 89 1015.2
20260901145020 66 217 2.0 3.0 0.00 0.00 0.00 89 1015.1
20260901144538 66 0 1.0 4.0 0.00 0.00 0.00 90 1015.1
20260901144022 65 196 1.0 4.0 0.00 0.00 0.00 91 1015.0
20260901143522 65 196 1.0 4.0 0.00 0.00 0.00 91 1014.9
20260901143038 65 170 0.0 6.0 0.00 0.00 0.00 92 1014.9
20260901142520 64 0 0.0 6.0 0.00 0.00 0.00 93 1014.9
20260901142017 64 142 2.0 5.0 0.00 0.00 0.00 93 1014.6
20260901141535 63 153 2.0 5.0 0.00 0.00 0.00 94 1014.6
20260901141021 63 141 1.0 4.0 0.00 0.00 0.00 95 1014.6
20260901140521 62 151 0.0 2.0 0.00 0.00 0.00 95 1014.6
20260901140035 62 0 0.0 0.0 0.00 0.00 0.00 95 1014.5
20260901135519 61 0 0.0 0.0 0.00 0.00 0.00 95 1014.4
20260901135024 61 0 0.0 0.0 0.00 0.00 0.00 95 1014.4
20260901134540 61 0 0.0 0.0 0.00 0.00 0.00 94 1014.5
20260901134019 60 0 0.0 0.0 0.00 0.00 0.00 94 1014.5
20260901133519 60 0 0.0 0.0 0.00 0.00 0.00 94 1014.5
20260901133049 60 0 0.0 0.0 0.00 0.00 0.00 93 1014.5
20260901132519 60 0 0.0 0.0 0.00 0.00 0.00 93 1014.4
20260901132017 60 0 0.0 0.0 0.00 0.00 0.00 93 1014.4
20260901131533 60 0 0.0 0.0 0.00 0.00 0.00 93 1014.3
20260901131016 60 0 0.0 0.0 0.00 0.00 0.00 93 1014.3
20260901130518 60 0 0.0 0.0 0.00 0.00 0.00 93 1014.2
20260901130039 60 0 0.0 0.0 0.00 0.00 0.00 93 1014.1
20260901125520 60 0 0.0 0.0 0.00 0.00 0.00 93 1014.1
20260901125026 60 0 0.0 0.0 0.00 0.00 0.00 92 1014.1
20260901124536 60 0 0.0 0.0 0.00 0.00 0.00 92 1014.1
20260901124019 60 0 0.0 0.0 0.00 0.00 0.00 92 1014.2
20260901123519 60 0 0.0 0.0 0.00 0.00 0.00 92 1014.3
20260901123038 61 0 0.0 0.0 0.00 0.00 0.00 92 1014.2
20260901122522 61 0 0.0 0.0 0.00 0.00 0.00 92 1014.1
20260901122019 61 0 0.0 0.0 0.00 0.00 0.00 92 1014.1
20260901121538 61 0 0.0 0.0 0.00 0.00 0.00 92 1014.1
20260901121018 61 0 0.0 0.0 0.00 0.00 0.00 92 1014.2
20260901120517 61 0 0.0 0.0 0.00 0.00 0.00 92 1014.0
20260901120046 61 0 0.0 0.0 0.00 0.00 0.00 92 1014.1
20260901115522 61 0 0.0 0.0 0.00 0.00 0.00 92 1014.0
20260901115020 61 0 0.0 0.0 0.00 0.00 0.00 92 1014.0
20260901114536 61 0 0.0 0.0 0.00 0.00 0.00 92 1014.0
20260901114019 61 0 0.0 0.0 0.00 0.00 0.00 92 1013.9
20260901113517 61 0 0.0 0.0 0.00 0.00 0.00 92 1014.0
20260901113036 61 0 0.0 0.0 0.00 0.00 0.00 92 1014.0
20260901112518 61 0 0.0 0.0 0.00 0.00 0.00 91 1014.0
20260901112016 62 0 0.0 0.0 0.00 0.00 0.00 91 1013.9
20260901111548 62 0 0.0 0.0 0.00 0.00 0.00 91 1013.9
20260901111015 62 0 0.0 0.0 0.00 0.00 0.00 92 1013.9
20260901110515 62 0 0.0 0.0 0.00 0.00 0.00 91 1013.9
20260901110036 62 0 0.0 0.0 0.00 0.00 0.00 92 1014.0
20260901105520 62 0 0.0 0.0 0.00 0.00 0.00 91 1014.0
20260901105019 62 0 0.0 0.0 0.00 0.00 0.00 91 1014.0
20260901104545 62 0 0.0 0.0 0.00 0.00 0.00 91 1014.2
20260901104021 62 0 0.0 0.0 0.00 0.00 0.00 91 1014.2
20260901103519 62 0 0.0 0.0 0.00 0.00 0.00 91 1014.2
20260901103038 63 0 0.0 0.0 0.00 0.00 0.00 91 1014.2
20260901102519 63 0 0.0 0.0 0.00 0.00 0.00 90 1014.1
20260901102018 63 0 0.0 0.0 0.00 0.00 0.00 90 1014.1
20260901101548 63 0 0.0 0.0 0.00 0.00 0.00 90 1014.2
20260901101015 63 0 0.0 0.0 0.00 0.00 0.00 90 1014.2
20260901100517 63 0 0.0 0.0 0.00 0.00 0.00 90 1014.3
20260901100039 63 0 0.0 0.0 0.00 0.00 0.00 90 1014.2
20260901095518 64 0 0.0 0.0 0.00 0.00 0.00 90 1014.3
20260901095020 64 0 0.0 0.0 0.00 0.00 0.00 90 1014.3
20260901094540 64 0 0.0 0.0 0.00 0.00 0.00 90 1014.2
20260901094019 64 0 0.0 0.0 0.00 0.00 0.00 89 1014.2
20260901093521 64 0 0.0 0.0 0.00 0.00 0.00 90 1014.1
20260901093048 64 0 0.0 0.0 0.00 0.00 0.00 90 1014.1
20260901092519 64 0 0.0 0.0 0.00 0.00 0.00 90 1014.1
20260901092016 65 0 0.0 1.0 0.00 0.00 0.00 90 1014.1
20260901091543 65 0 0.0 1.0 0.00 0.00 0.00 90 1014.2
20260901091023 65 0 0.0 2.0 0.00 0.00 0.00 90 1014.1
20260901090519 65 0 0.0 2.0 0.00 0.00 0.00 90 1014.1
20260901090035 65 0 0.0 3.0 0.00 0.00 0.00 90 1014.1
20260901085519 65 0 0.0 3.0 0.00 0.00 0.00 90 1014.1
20260901085018 65 0 0.0 2.0 0.00 0.00 0.00 90 1014.2
20260901084539 65 0 0.0 2.0 0.00 0.00 0.00 90 1014.2
20260901084021 65 240 0.0 2.0 0.00 0.00 0.00 90 1014.3
20260901083524 65 0 0.0 3.0 0.00 0.00 0.00 90 1014.4
20260901083035 65 0 0.0 3.0 0.00 0.00 0.00 89 1014.5
20260901082519 65 211 0.0 2.0 0.00 0.00 0.00 89 1014.6
20260901082018 65 211 0.0 2.0 0.00 0.00 0.00 89 1014.5
20260901081535 66 0 0.0 2.0 0.00 0.00 0.00 89 1014.4
20260901081018 66 0 0.0 3.0 0.00 0.00 0.00 89 1014.4
20260901080519 66 0 0.0 3.0 0.00 0.00 0.00 89 1014.3
20260901080036 66 211 0.0 3.0 0.00 0.00 0.00 89 1014.4
20260901075522 66 0 0.0 2.0 0.00 0.00 0.00 89 1014.4
20260901075026 66 0 0.0 3.0 0.00 0.00 0.00 89 1014.4
20260901074545 66 0 0.0 3.0 0.00 0.00 0.00 89 1014.4
20260901074016 66 261 0.0 3.0 0.00 0.00 0.00 89 1014.3
20260901073524 66 252 0.0 3.0 0.00 0.00 0.00 89 1014.4
20260901073034 66 273 1.0 4.0 0.00 0.00 0.00 89 1014.3
20260901072516 66 0 1.0 4.0 0.00 0.00 0.00 90 1014.4
20260901072020 66 261 0.0 3.0 0.00 0.00 0.00 89 1014.4
20260901071536 66 212 0.0 2.0 0.00 0.00 0.00 89 1014.4
20260901071019 66 0 0.0 0.0 0.00 0.00 0.00 89 1014.5
20260901070518 66 0 0.0 1.0 0.00 0.00 0.00 89 1014.4
20260901070035 66 0 0.0 1.0 0.00 0.00 0.00 89 1014.4
20260901065520 67 0 0.0 2.0 0.00 0.00 0.00 88 1014.4
20260901065020 67 0 0.0 2.0 0.00 0.00 0.00 88 1014.4
20260901064536 67 190 0.0 2.0 0.00 0.00 0.00 89 1014.3
20260901064017 67 0 0.0 3.0 0.00 0.00 0.00 88 1014.3
20260901063515 67 0 0.0 3.0 0.00 0.00 0.00 88 1014.2
20260901063035 67 253 0.0 4.0 0.00 0.00 0.00 88 1014.2
20260901062516 67 0 1.0 4.0 0.00 0.00 0.00 88 1014.0
20260901062020 67 0 0.0 4.0 0.00 0.00 0.00 88 1013.9
20260901061534 67 277 1.0 4.0 0.00 0.00 0.00 88 1013.9
20260901061018 67 240 0.0 5.0 0.00 0.00 0.00 88 1013.8
20260901060518 67 257 2.0 6.0 0.00 0.00 0.00 88 1013.8
20260901060035 67 254 1.0 6.0 0.00 0.00 0.00 88 1013.9
20260901055523 67 0 1.0 8.0 0.00 0.00 0.00 88 1013.8
20260901055024 67 232 2.0 8.0 0.00 0.00 0.00 88 1013.8
20260901054535 68 250 2.0 8.0 0.00 0.00 0.00 88 1013.8
20260901054016 68 267 3.0 8.0 0.00 0.00 0.00 88 1013.9
20260901053516 68 258 3.0 8.0 0.00 0.00 0.00 88 1013.9
20260901053038 68 248 2.0 8.0 0.00 0.00 0.00 88 1013.9
20260901052515 68 264 2.0 7.0 0.00 0.00 0.00 88 1013.9
20260901052019 68 266 2.0 7.0 0.00 0.00 0.00 88 1013.8
20260901051532 68 276 2.0 6.0 0.00 0.00 0.00 88 1013.8
20260901051018 68 263 1.0 6.0 0.00 0.00 0.00 88 1013.7
20260901050518 68 223 1.0 9.0 0.00 0.00 0.00 87 1013.8
20260901050037 68 262 4.0 9.0 0.00 0.00 0.00 88 1013.7
20260901045519 68 269 2.0 8.0 0.00 0.00 0.00 87 1013.7
20260901045029 68 0 2.0 7.0 0.00 0.00 0.00 88 1013.7
20260901044536 68 256 3.0 7.0 0.00 0.00 0.00 88 1013.7
20260901044015 69 245 2.0 7.0 0.00 0.00 0.00 88 1013.8
20260901043521 69 251 1.0 3.0 0.00 0.00 0.00 88 1013.8
20260901043039 68 0 1.0 4.0 0.00 0.00 0.00 88 1013.8
20260901042520 68 233 1.0 5.0 0.00 0.00 0.00 88 1013.7
20260901042018 68 257 1.0 5.0 0.00 0.00 0.00 88 1013.7
20260901041533 69 0 1.0 4.0 0.00 0.00 0.00 88 1013.5
20260901041016 69 270 2.0 4.0 0.00 0.00 0.00 88 1013.4
20260901040518 69 275 0.0 5.0 0.00 0.00 0.00 88 1013.4
20260901040038 69 249 1.0 5.0 0.00 0.00 0.00 88 1013.3
20260901035520 69 259 1.0 6.0 0.00 0.00 0.00 88 1013.2
20260901035017 68 209 1.0 6.0 0.00 0.00 0.00 87 1013.2
20260901034546 68 237 1.0 4.0 0.00 0.00 0.00 87 1013.0
20260901034016 68 264 2.0 5.0 0.00 0.00 0.00 87 1012.9
20260901033523 68 229 2.0 7.0 0.00 0.00 0.00 87 1012.9
20260901033053 68 215 2.0 7.0 0.00 0.00 0.00 87 1012.8
20260901032518 68 279 1.0 5.0 0.00 0.00 0.00 87 1012.7
20260901032022 69 246 1.0 5.0 0.00 0.00 0.00 87 1012.7
20260901031559 69 217 1.0 9.0 0.00 0.00 0.00 87 1012.7
20260901031024 69 237 3.0 9.0 0.00 0.00 0.00 87 1012.6
20260901030519 69 217 2.0 7.0 0.00 0.00 0.00 87 1012.5
20260901030042 69 277 1.0 9.0 0.00 0.00 0.00 86 1012.4
20260901025526 69 265 1.0 9.0 0.00 0.00 0.00 86 1012.4
20260901025021 69 209 4.0 9.0 0.00 0.00 0.00 86 1012.3
20260901024534 69 250 3.0 10.0 0.00 0.00 0.00 86 1012.2
20260901024020 69 278 2.0 10.0 0.00 0.00 0.00 86 1012.1
20260901023515 69 262 2.0 9.0 0.00 0.00 0.00 86 1012.1
20260901023036 69 259 3.0 10.0 0.00 0.00 0.00 86 1012.2
20260901022517 69 269 4.0 10.0 0.00 0.00 0.00 86 1012.2
20260901022016 69 249 4.0 9.0 0.00 0.00 0.00 85 1012.3
20260901021537 69 270 4.0 9.0 0.00 0.00 0.00 85 1012.3
20260901021020 70 234 2.0 11.0 0.00 0.00 0.00 85 1012.3
20260901020520 70 275 4.0 11.0 0.00 0.00 0.00 85 1012.3
20260901020038 70 268 5.0 11.0 0.00 0.00 0.00 84 1012.3
20260901015519 71 254 3.0 11.0 0.00 0.00 0.00 83 1012.3
20260901015019 71 270 4.0 11.0 0.00 0.00 0.00 83 1012.3
20260901014540 71 227 4.0 11.0 0.00 0.00 0.00 83 1012.3
20260901014019 71 257 5.0 12.0 0.00 0.00 0.00 83 1012.2
20260901013516 71 230 4.0 12.0 0.00 0.00 0.00 83 1012.3
20260901013041 71 300 3.0 12.0 0.00 0.00 0.00 83 1012.3
20260901012517 71 262 3.0 11.0 0.00 0.00 0.00 83 1012.3
20260901012018 71 231 4.0 11.0 0.00 0.00 0.00 83 1012.5
20260901011537 71 271 4.0 11.0 0.00 0.00 0.00 82 1012.5
20260901011020 71 259 3.0 11.0 0.00 0.00 0.00 83 1012.4
20260901010520 71 229 5.0 12.0 0.00 0.00 0.00 82 1012.4
20260901010037 72 238 6.0 12.0 0.00 0.00 0.00 82 1012.5
20260901005518 72 224 6.0 12.0 0.00 0.00 0.00 81 1012.7
20260901005020 73 220 6.0 12.0 0.00 0.00 0.00 81 1012.6
20260901004539 73 259 5.0 14.0 0.00 0.00 0.00 81 1012.7
20260901004018 73 217 6.0 14.0 0.00 0.00 0.00 80 1012.7
20260901003516 73 275 5.0 12.0 0.00 0.00 0.00 80 1012.6
20260901003036 73 266 6.0 12.0 0.00 0.00 0.00 80 1012.7
20260901002518 74 225 5.0 11.0 0.00 0.00 0.00 80 1012.7
20260901002016 73 252 5.0 13.0 0.00 0.00 0.00 81 1012.6
20260901001548 74 196 7.0 14.0 0.00 0.00 0.00 80 1012.7
20260901001019 74 226 8.0 14.0 0.00 0.00 0.00 79 1012.6
20260901000517 74 218 7.0 14.0 0.00 0.00 0.00 79 1012.6
20260901000036 74 263 6.0 14.0 0.00 0.00 0.00 80 1012.5
20260831235523 74 219 7.0 13.0 0.00 0.00 0.00 80 1012.7
20260831235019 75 275 6.0 15.0 0.00 0.00 0.00 80 1012.7
20260831234538 75 237 8.0 15.0 0.00 0.00 0.00 79 1012.6
20260831234019 75 270 6.0 14.0 0.00 0.00 0.00 80 1012.7
20260831233519 75 234 8.0 14.0 0.00 0.00 0.00 79 1012.6
20260831233034 75 235 7.0 17.0 0.00 0.00 0.00 80 1012.5
20260831232518 76 231 7.0 17.0 0.00 0.00 0.00 79 1012.6
20260831232018 76 219 7.0 17.0 0.00 0.00 0.00 78 1012.6
20260831231536 76 252 6.0 14.0 0.00 0.00 0.00 79 1012.5
20260831231021 76 238 5.0 14.0 0.00 0.00 0.00 78 1012.5
20260831230520 76 242 7.0 16.0 0.00 0.00 0.00 78 1012.5
20260831230037 76 275 7.0 16.0 0.00 0.00 0.00 79 1012.5
20260831225515 76 233 7.0 14.0 0.00 0.00 0.00 79 1012.5
20260831225022 76 236 8.0 17.0 0.00 0.00 0.00 78 1012.4
20260831224534 76 212 7.0 17.0 0.00 0.00 0.00 79 1012.6
20260831224018 76 271 7.0 14.0 0.00 0.00 0.00 78 1012.7
20260831223519 76 215 8.0 16.0 0.00 0.00 0.00 77 1012.7
20260831223034 76 225 6.0 16.0 0.00 0.00 0.00 77 1012.8
20260831222516 76 272 8.0 17.0 0.00 0.00 0.00 76 1012.8
20260831222028 77 215 8.0 17.0 0.00 0.00 0.00 76 1012.9
20260831221543 77 211 6.0 18.0 0.00 0.00 0.00 75 1013.0
20260831221017 77 230 8.0 18.0 0.00 0.00 0.00 76 1013.0
20260831220519 77 236 8.0 17.0 0.00 0.00 0.00 76 1013.1
20260831220037 77 237 6.0 16.0 0.00 0.00 0.00 75 1013.1
20260831215517 77 273 8.0 16.0 0.00 0.00 0.00 76 1013.1
20260831215017 77 240 8.0 16.0 0.00 0.00 0.00 75 1013.2
20260831214535 77 240 9.0 17.0 0.00 0.00 0.00 75 1013.2
20260831214016 76 276 7.0 17.0 0.00 0.00 0.00 76 1013.2
20260831213518 76 263 8.0 16.0 0.00 0.00 0.00 75 1013.3
20260831213047 77 266 7.0 15.0 0.00 0.00 0.00 75 1013.3
20260831212520 77 219 7.0 14.0 0.00 0.00 0.00 75 1013.4
20260831212021 77 265 7.0 16.0 0.00 0.00 0.00 75 1013.4
20260831211538 77 279 7.0 16.0 0.00 0.00 0.00 75 1013.4
20260831211018 77 230 8.0 16.0 0.00 0.00 0.00 75 1013.5
20260831210522 77 261 7.0 15.0 0.00 0.00 0.00 74 1013.5
20260831210036 78 241 6.0 18.0 0.00 0.00 0.00 75 1013.5
20260831205517 77 229 6.0 18.0 0.00 0.00 0.00 75 1013.5